TimeMST,TemperatureF,Dew PointF,Humidity,Sea Level PressureIn,VisibilityMPH,Wind Direction,Wind SpeedMPH,Gust SpeedMPH,PrecipitationIn,Events,Conditions,WindDirDegrees,DateUTC
12:15 AM,17.6,-16.6,21,30.08,10.0,SSE,9.2,-,N/A,,Clear,150,2012-12-20 07:15:00
12:35 AM,14.0,-14.8,27,30.08,10.0,SSE,5.8,-,N/A,,Clear,150,2012-12-20 07:35:00
12:55 AM,17.6,-14.8,23,30.08,10.0,South,9.2,-,N/A,,Clear,170,2012-12-20 07:55:00
1:15 AM,15.8,-16.6,23,30.08,10.0,South,6.9,-,N/A,,Clear,170,2012-12-20 08:15:00
1:35 AM,19.4,-13.0,23,30.08,10.0,South,4.6,-,N/A,,Clear,170,2012-12-20 08:35:00
1:55 AM,15.8,-16.6,23,30.09,10.0,SSE,3.5,-,N/A,,Clear,150,2012-12-20 08:55:00
2:15 AM,17.6,-14.8,23,30.10,10.0,SSE,3.5,-,N/A,,Clear,150,2012-12-20 09:15:00
2:35 AM,15.8,-14.8,25,30.10,10.0,SE,5.8,-,N/A,,Clear,140,2012-12-20 09:35:00
2:55 AM,15.8,-14.8,25,30.11,10.0,SE,8.1,-,N/A,,Clear,130,2012-12-20 09:55:00
3:15 AM,15.8,-14.8,25,30.10,10.0,SE,8.1,-,N/A,,Clear,130,2012-12-20 10:15:00
3:35 AM,15.8,-14.8,25,30.11,10.0,SE,5.8,-,N/A,,Clear,140,2012-12-20 10:35:00
3:55 AM,14.0,-13.0,29,30.11,10.0,SSE,6.9,-,N/A,,Clear,150,2012-12-20 10:55:00
4:15 AM,12.2,-11.2,34,30.10,10.0,SSE,9.2,-,N/A,,Clear,150,2012-12-20 11:15:00
4:55 AM,10.4,-5.8,48,30.10,10.0,SSE,11.5,-,N/A,,Clear,150,2012-12-20 11:55:00
5:15 AM,8.6,-5.8,52,30.10,10.0,SSE,11.5,-,N/A,,Clear,150,2012-12-20 12:15:00
5:35 AM,8.6,-5.8,52,30.11,10.0,SSE,11.5,19.6,N/A,,Clear,150,2012-12-20 12:35:00
5:55 AM,8.6,-7.6,48,30.12,10.0,SSE,13.8,19.6,N/A,,Clear,160,2012-12-20 12:55:00
6:15 AM,10.4,-5.8,48,30.11,10.0,SE,17.3,23.0,N/A,,Clear,140,2012-12-20 13:15:00
6:35 AM,8.6,-5.8,52,30.10,10.0,SE,18.4,23.0,N/A,,Clear,140,2012-12-20 13:35:00
6:55 AM,10.4,-5.8,48,30.10,10.0,SSE,23.0,27.6,N/A,,Clear,160,2012-12-20 13:55:00
7:15 AM,12.2,-4.0,48,30.12,10.0,SSE,21.9,34.5,N/A,,Clear,160,2012-12-20 14:15:00
7:35 AM,12.2,-5.8,45,30.13,10.0,South,23.0,-,N/A,,Clear,170,2012-12-20 14:35:00
7:55 AM,10.4,-5.8,48,30.13,10.0,SSE,18.4,-,N/A,,Clear,160,2012-12-20 14:55:00
8:15 AM,12.2,-5.8,45,30.13,10.0,SSE,16.1,-,N/A,,Clear,150,2012-12-20 15:15:00
8:35 AM,12.2,-4.0,48,30.14,10.0,SSE,13.8,19.6,N/A,,Clear,150,2012-12-20 15:35:00
8:55 AM,14.0,-4.0,45,30.15,10.0,SSE,15.0,24.2,N/A,,Clear,150,2012-12-20 15:55:00
9:15 AM,12.2,-4.0,48,30.15,10.0,SSE,13.8,-,N/A,,Clear,150,2012-12-20 16:15:00
9:35 AM,12.2,-4.0,48,30.16,10.0,SE,17.3,20.7,N/A,,Clear,140,2012-12-20 16:35:00
10:15 AM,14.0,-4.0,45,30.16,10.0,SSE,13.8,20.7,N/A,,Clear,160,2012-12-20 17:15:00
10:55 AM,19.4,-2.2,39,30.16,10.0,South,16.1,23.0,N/A,,Clear,170,2012-12-20 17:55:00
11:15 AM,17.6,-0.4,45,30.16,10.0,SSE,12.7,-,N/A,,Clear,150,2012-12-20 18:15:00
11:35 AM,17.6,-0.4,45,30.16,10.0,SSE,15.0,-,N/A,,Clear,150,2012-12-20 18:35:00
11:55 AM,17.6,-2.2,42,30.15,10.0,SE,16.1,-,N/A,,Clear,140,2012-12-20 18:55:00
12:15 PM,17.6,-2.2,42,30.15,10.0,SSE,12.7,-,N/A,,Clear,150,2012-12-20 19:15:00
12:35 PM,17.6,-0.4,45,30.14,10.0,SE,15.0,-,N/A,,Clear,140,2012-12-20 19:35:00
12:55 PM,17.6,-0.4,45,30.14,10.0,SSE,12.7,23.0,N/A,,Clear,150,2012-12-20 19:55:00
1:15 PM,19.4,-2.2,39,30.15,10.0,SSE,12.7,27.6,N/A,,Clear,150,2012-12-20 20:15:00
1:35 PM,19.4,-2.2,39,30.15,10.0,SE,16.1,21.9,N/A,,Clear,140,2012-12-20 20:35:00
2:15 PM,19.4,-0.4,42,30.14,10.0,SE,21.9,27.6,N/A,,Clear,130,2012-12-20 21:15:00
2:35 PM,19.4,-0.4,42,30.14,10.0,ESE,21.9,-,N/A,,Clear,120,2012-12-20 21:35:00
2:55 PM,21.2,1.4,42,30.14,10.0,SE,21.9,27.6,N/A,,Clear,140,2012-12-20 21:55:00
3:15 PM,21.2,1.4,42,30.14,10.0,SE,17.3,24.2,N/A,,Clear,140,2012-12-20 22:15:00
3:35 PM,21.2,-0.4,39,30.15,10.0,SSE,11.5,-,N/A,,Clear,150,2012-12-20 22:35:00
3:55 PM,21.2,-0.4,39,30.15,10.0,SSE,10.4,-,N/A,,Clear,150,2012-12-20 22:55:00
4:15 PM,21.2,1.4,42,30.14,10.0,SE,18.4,-,N/A,,Clear,130,2012-12-20 23:15:00
4:35 PM,21.2,1.4,42,30.15,10.0,SSE,12.7,19.6,N/A,,Clear,150,2012-12-20 23:35:00
4:55 PM,23.0,-0.4,36,30.15,10.0,SSE,12.7,-,N/A,,Clear,150,2012-12-20 23:55:00
5:15 PM,23.0,1.4,39,30.15,10.0,SSE,11.5,-,N/A,,Clear,150,2012-12-21 00:15:00
5:35 PM,23.0,-0.4,36,30.16,10.0,SSE,10.4,-,N/A,,Clear,150,2012-12-21 00:35:00
5:55 PM,23.0,1.4,39,30.15,10.0,SE,12.7,-,N/A,,Clear,140,2012-12-21 00:55:00
6:15 PM,23.0,1.4,39,30.15,10.0,SE,12.7,-,N/A,,Clear,140,2012-12-21 01:15:00
6:35 PM,23.0,1.4,39,30.14,10.0,SE,20.7,-,N/A,,Clear,130,2012-12-21 01:35:00
6:55 PM,23.0,1.4,39,30.15,10.0,SE,20.7,-,N/A,,Clear,130,2012-12-21 01:55:00
7:15 PM,21.2,1.4,42,30.14,10.0,SE,21.9,-,N/A,,Clear,130,2012-12-21 02:15:00
7:35 PM,21.2,1.4,42,30.15,10.0,SSE,15.0,20.7,N/A,,Clear,150,2012-12-21 02:35:00
7:55 PM,21.2,1.4,42,30.15,10.0,SE,17.3,-,N/A,,Clear,130,2012-12-21 02:55:00
8:15 PM,21.2,1.4,42,30.16,10.0,ESE,17.3,-,N/A,,Clear,120,2012-12-21 03:15:00
8:35 PM,21.2,1.4,42,30.16,10.0,SE,13.8,-,N/A,,Clear,130,2012-12-21 03:35:00
8:55 PM,21.2,-0.4,39,30.16,10.0,SE,12.7,-,N/A,,Clear,130,2012-12-21 03:55:00
9:15 PM,23.0,-0.4,36,30.16,10.0,SSE,10.4,-,N/A,,Clear,150,2012-12-21 04:15:00
9:35 PM,23.0,-0.4,36,30.16,10.0,SE,12.7,-,N/A,,Clear,140,2012-12-21 04:35:00
9:55 PM,19.4,-0.4,42,30.16,10.0,SE,16.1,-,N/A,,Clear,130,2012-12-21 04:55:00
10:15 PM,19.4,-0.4,42,30.16,10.0,SE,16.1,-,N/A,,Clear,130,2012-12-21 05:15:00
10:35 PM,19.4,-0.4,42,30.16,10.0,SE,18.4,-,N/A,,Clear,130,2012-12-21 05:35:00
10:55 PM,19.4,-0.4,42,30.16,10.0,SE,15.0,-,N/A,,Clear,130,2012-12-21 05:55:00
11:15 PM,19.4,-0.4,42,30.16,10.0,SE,13.8,-,N/A,,Clear,130,2012-12-21 06:15:00
11:35 PM,17.6,-0.4,45,30.15,10.0,SE,18.4,-,N/A,,Clear,130,2012-12-21 06:35:00